• Join FlightAware (Why Join?)
  • Login
  • US Flag 
10:30AM EDT


 

Airport Tracker/Info


-or-


 

Live Flight TrackerFlight Track Log ✈ SWA4166 ✈ 27-Dec-2012 ✈ KLAS - KMCO

Flight Track Log - Related Links

Times and Time Zones

All times are in EST time to prevent confusion due to time zone crossing. See the SWA4166 flight status page for this flight to view local times or setup timezone preferences in your user account.

Time Position Orientation Groundspeed Altitude Reporting Facility
EST Latitude Longitude Course Direction KTS MPH feet Rate Location/Type
08:52PM 36.1083 -115.1469 63° Northeast 170 196 3,200  Level Los Angeles Center
08:53PM 36.1322 -115.0883 63° Northeast 226 260 5,600 2,640 Climbing Los Angeles Center
08:54PM 36.1361 -115.0392 84° East 237 273 7,600 2,640 Climbing Los Angeles Center
08:54PM 36.1394 -115.0033 83° East 255 293 8,300 2,880 Climbing Los Angeles Center
08:55PM 36.1342 -114.9456 96° East 278 320 10,600 2,700 Climbing Los Angeles Center
08:56PM 36.1061 -114.8403 108° East 323 372 12,800 2,280 Climbing Los Angeles Center
08:57PM 36.0708 -114.7236 110° East 356 410 15,400 2,520 Climbing Los Angeles Center
08:58PM 36.0375 -114.5992 108° East 376 433 18,100 2,760 Climbing Los Angeles Center
08:59PM 36.0019 -114.4422 106° East 391 450 21,200 2,580 Climbing Los Angeles Center
09:00PM 35.9811 -114.3025 100° East 409 471 23,500 2,040 Climbing Los Angeles Center
09:01PM 35.9733 -114.1575 94° East 420 483 25,400 1,500 Climbing Los Angeles Center
09:02PM 35.9719 -114.0064 91° East 440 506 26,700 1,200 Climbing Los Angeles Center
09:03PM 35.9694 -113.8472 91° East 458 527 28,000 1,260 Climbing Los Angeles Center
09:04PM 35.9653 -113.6828 92° East 473 544 29,400 1,560 Climbing Los Angeles Center
09:05PM 35.9622 -113.5117 91° East 481 554 31,300 1,500 Climbing Los Angeles Center
09:06PM 35.9589 -113.3464 91° East 482 555 32,500 1,260 Climbing Los Angeles Center
09:07PM 35.9544 -113.1789 92° East 485 558 33,900 1,260 Climbing Los Angeles Center
09:08PM 35.9503 -113.0100 92° East 489 563 35,100 1,200 Climbing Los Angeles Center
09:09PM 35.9453 -112.8092 92° East 488 562 36,400 900 Climbing Los Angeles Center
09:10PM 35.9408 -112.6400 92° East 490 564 37,000 240 Climbing Los Angeles Center
09:11PM 35.9361 -112.4694 92° East 494 568 37,000  Level Los Angeles Center
09:12PM 35.9311 -112.3003 92° East 494 568 37,000  Level Los Angeles Center
09:13PM 35.9256 -112.1319 92° East 493 567 37,000  Level Los Angeles Center
09:14PM 35.9200 -111.9639 92° East 491 565 37,000  Level Los Angeles Center
09:15PM 35.9150 -111.8228 92° East 489 563 37,000  Level Denver Center
09:16PM 35.9094 -111.6583 92° East 485 558 37,000  Level Denver Center
09:17PM 35.9033 -111.4928 93° East 485 558 37,000  Level Denver Center
09:18PM 35.8969 -111.3286 93° East 483 556 37,000  Level Denver Center
09:19PM 35.8900 -111.1642 93° East 482 555 37,000  Level Denver Center
09:20PM 35.8833 -110.9989 93° East 485 558 37,000  Level Denver Center
09:21PM 35.8747 -110.8122 93° East 486 559 37,000  Level Albuquerque Center
09:22PM 35.8681 -110.6528 93° East 487 560 37,000  Level Albuquerque Center
09:23PM 35.8567 -110.4658 94° East 490 564 37,000  Level Albuquerque Center
09:24PM 35.8486 -110.3050 93° East 491 565 37,000  Level Albuquerque Center
09:25PM 35.8414 -110.1181 93° East 490 564 37,000  Level Albuquerque Center
09:26PM 35.8331 -109.9581 94° East 490 564 37,000  Level Albuquerque Center
09:27PM 35.8236 -109.7700 93° East 492 566 37,000  Level Albuquerque Center
09:28PM 35.8156 -109.6103 94° East 491 565 37,000  Level Albuquerque Center
09:29PM 35.8072 -109.4506 94° East 490 564 37,000  Level Albuquerque Center
09:30PM 35.7975 -109.2656 94° East 489 563 37,000  Level Albuquerque Center
09:31PM 35.7878 -109.1092 94° East 485 558 37,000  Level Albuquerque Center
09:32PM 35.7775 -108.9258 94° East 485 558 37,000  Level Albuquerque Center
09:33PM 35.7683 -108.7700 94° East 484 557 37,000  Level Albuquerque Center
09:34PM 35.7567 -108.5856 94° East 486 559 37,000  Level Albuquerque Center
09:35PM 35.7467 -108.4264 94° East 489 563 37,000  Level Albuquerque Center
09:36PM 35.7336 -108.2386 95° East 494 568 37,000  Level Albuquerque Center
09:37PM 35.7222 -108.0783 95° East 493 567 37,000  Level Albuquerque Center
09:38PM 35.7106 -107.9172 95° East 494 568 37,000  Level Albuquerque Center
09:39PM 35.6964 -107.7289 95° East 495 570 37,000  Level Albuquerque Center
09:40PM 35.6850 -107.5669 95° East 496 571 37,000  Level Albuquerque Center
09:42PM 35.6722 -107.3783 95° East 496 571 37,000  Level Albuquerque Center
09:43PM 35.6608 -107.2164 95° East 498 573 37,000  Level Albuquerque Center
09:44PM 35.6483 -107.0511 95° East 503 579 37,000  Level Albuquerque Center
09:45PM 35.6358 -106.8681 95° East 507 583 37,000  Level Albuquerque Center
09:46PM 35.6225 -106.6953 95° East 506 582 37,000  Level Albuquerque Center
09:47PM 35.6097 -106.5222 95° East 506 582 37,000  Level Albuquerque Center
09:48PM 35.5961 -106.3492 95° East 505 581 37,000  Level Albuquerque Center
09:49PM 35.5814 -106.1708 96° East 508 585 37,000  Level Albuquerque Center
09:50PM 35.5669 -106.0042 96° East 506 582 37,000  Level Albuquerque Center
09:51PM 35.5514 -105.8267 96° East 502 578 37,000  Level Albuquerque Center
09:52PM 35.5378 -105.6544 95° East 503 579 37,000  Level Albuquerque Center
09:53PM 35.5228 -105.4825 96° East 502 578 37,000  Level Albuquerque Center
09:54PM 35.5019 -105.2814 97° East 504 580 37,000  Level Albuquerque Center
09:55PM 35.4858 -105.1083 96° East 505 581 37,000  Level Albuquerque Center
09:56PM 35.4706 -104.9353 96° East 506 582 37,000  Level Albuquerque Center
09:57PM 35.4533 -104.7606 97° East 509 586 37,000  Level Albuquerque Center
09:58PM 35.4364 -104.5842 97° East 513 590 37,000  Level Albuquerque Center
09:59PM 35.4186 -104.4081 97° East 514 592 37,000  Level Albuquerque Center
10:00PM 35.4011 -104.2272 97° East 518 596 37,000  Level Albuquerque Center
10:01PM 35.3844 -104.0447 96° East 522 601 37,000  Level Albuquerque Center
10:02PM 35.3658 -103.8631 97° East 526 605 37,000  Level Albuquerque Center
10:03PM 35.3469 -103.6825 97° East 527 606 37,000  Level Albuquerque Center
10:04PM 35.3281 -103.5031 97° East 527 606 37,000  Level Albuquerque Center
10:05PM 35.3092 -103.3242 97° East 525 604 37,000  Level Albuquerque Center
10:06PM 35.2894 -103.1469 98° East 522 601 37,000  Level Albuquerque Center
10:07PM 35.2706 -102.9678 97° East 525 604 37,000  Level Albuquerque Center
10:08PM 35.2517 -102.7994 98° East 525 604 37,000  Level Albuquerque Center
10:09PM 35.2322 -102.6228 98° East 525 604 37,000  Level Albuquerque Center
10:10PM 35.2117 -102.4467 98° East 525 604 37,000  Level Albuquerque Center
10:11PM 35.1919 -102.2703 98° East 525 604 37,000  Level Albuquerque Center
10:12PM 35.1708 -102.0953 98° East 524 603 37,000  Level Albuquerque Center
10:13PM 35.1478 -101.9008 98° East 523 602 37,000  Level Albuquerque Center
10:14PM 35.1272 -101.7228 98° East 523 602 37,000  Level Albuquerque Center
10:15PM 35.1081 -101.5514 98° East 524 603 37,000  Level Albuquerque Center
10:16PM 35.0872 -101.3728 98° East 528 608 37,000  Level Albuquerque Center
10:17PM 35.0614 -101.1867 100° East 536 617 37,000  Level Albuquerque Center
10:18PM 35.0386 -101.0067 99° East 538 619 37,000  Level Albuquerque Center
10:19PM 35.0164 -100.8269 99° East 537 618 37,000  Level Albuquerque Center
10:20PM 34.9883 -100.6111 99° East 538 619 37,000  Level Albuquerque Center
10:21PM 34.9644 -100.4314 99° East 538 619 37,000  Level Albuquerque Center
10:22PM 34.9414 -100.2547 99° East 538 619 37,000 240 Level Albuquerque Center
10:23PM 34.9172 -100.0742 99° East 539 620 37,600 960 Climbing Albuquerque Center
10:24PM 34.8931 -99.8994 100° East 528 608 39,000 660 Climbing Albuquerque Center
10:25PM 34.8692 -99.7269 100° East 520 598 39,000  Level Albuquerque Center
10:26PM 34.8456 -99.5536 99° East 520 598 39,000  Level Albuquerque Center
10:27PM 34.8211 -99.3781 100° East 524 603 39,000  Level Albuquerque Center
10:28PM 34.7928 -99.2011 101° East 526 605 39,000  Level Fort Worth Center
10:29PM 34.7700 -99.0264 99° East 526 605 39,000  Level Fort Worth Center
10:30PM 34.7431 -98.8489 100° East 526 605 39,000  Level Fort Worth Center
10:31PM 34.7158 -98.6689 100° East 526 605 39,000  Level Fort Worth Center
10:32PM 34.6903 -98.4919 100° East 526 605 39,000  Level Fort Worth Center
10:33PM 34.6644 -98.3200 100° East 521 600 39,000  Level Fort Worth Center
10:34PM 34.6364 -98.1403 101° East 526 605 39,000  Level Fort Worth Center
10:35PM 34.6083 -97.9583 101° East 536 617 39,000  Level Fort Worth Center
10:36PM 34.5797 -97.7742 101° East 541 623 39,000  Level Fort Worth Center
10:37PM 34.5508 -97.5900 101° East 551 634 39,000  Level Fort Worth Center
10:38PM 34.5217 -97.4086 101° East 551 634 39,000  Level Fort Worth Center
10:39PM 34.4925 -97.2244 101° East 551 634 39,000  Level Fort Worth Center
10:40PM 34.4628 -97.0408 101° East 551 634 39,000  Level Fort Worth Center
10:41PM 34.4331 -96.8569 101° East 551 634 39,000  Level Fort Worth Center
10:42PM 34.4028 -96.6786 102° East 545 627 39,000  Level Fort Worth Center
10:43PM 34.3725 -96.4975 101° East 545 627 39,000  Level Fort Worth Center
10:44PM 34.3439 -96.3169 101° East 545 627 39,000  Level Fort Worth Center
10:45PM 34.3131 -96.1361 102° East 545 627 39,000  Level Fort Worth Center
10:46PM 34.2817 -95.9531 102° East 545 627 39,000  Level Fort Worth Center
10:47PM 34.2503 -95.7703 102° East 545 627 39,000  Level Fort Worth Center
10:48PM 34.2164 -95.5925 103° East 545 627 39,000  Level Fort Worth Center
10:49PM 34.1911 -95.4300 101° East 545 627 39,000  Level Fort Worth Center
10:50PM 34.1608 -95.2475 101° East 545 627 39,000  Level Fort Worth Center
10:51PM 34.1306 -95.0650 101° East 545 627 39,000  Level Fort Worth Center
10:52PM 34.1000 -94.8903 102° East 545 627 39,000  Level Fort Worth Center
10:53PM 34.0669 -94.7058 102° East 545 627 39,000  Level Fort Worth Center
10:54PM 34.0339 -94.5289 103° East 545 627 39,000  Level Fort Worth Center
10:55PM 34.0003 -94.3419 102° East 550 633 39,000  Level Fort Worth Center
10:56PM 33.9686 -94.1653 102° East 550 633 39,000  Level Fort Worth Center
10:57PM 33.9344 -93.9814 103° East 550 633 39,000  Level Fort Worth Center
10:58PM 33.9003 -93.8025 103° East 550 633 39,000  Level Fort Worth Center
10:59PM 33.8653 -93.6064 102° East 550 633 39,000  Level Fort Worth Center
11:00PM 33.8283 -93.4256 104° East 550 633 39,000  Level Fort Worth Center
11:01PM 33.8022 -93.2944 103° East 541 623 39,000  Level Memphis Center
11:02PM 33.7667 -93.1158 103° East 548 631 39,000  Level Memphis Center
11:04PM 33.6892 -92.7181 103° East 561 646 39,000  Level Fort Worth Center
11:05PM 33.6531 -92.5428 104° East 548 631 39,000  Level Fort Worth Center
11:06PM 33.6258 -92.4103 104° East 543 625 39,000  Level Memphis Center
11:07PM 33.5911 -92.2350 103° East 552 635 39,000  Level Memphis Center
11:08PM 33.5539 -92.0547 104° East 552 635 39,000  Level Memphis Center
11:09PM 33.5147 -91.8647 104° East 542 624 39,000  Level Memphis Center
11:10PM 33.4706 -91.6869 107° East 542 624 39,000  Level Memphis Center
11:11PM 33.4369 -91.5097 103° East 547 629 39,000  Level Memphis Center
11:12PM 33.3967 -91.3350 105° East 552 635 39,000  Level Memphis Center
11:13PM 33.3625 -91.1531 103° East 552 635 39,000  Level Memphis Center
11:14PM 33.3217 -90.9789 106° East 552 635 39,000  Level Memphis Center
11:15PM 33.2850 -90.8019 104° East 552 635 39,000  Level Memphis Center
11:16PM 33.2478 -90.6256 104° East 552 635 39,000  Level Memphis Center
11:17PM 33.2106 -90.4542 105° East 546 628 39,000  Level Memphis Center
11:18PM 33.1708 -90.2778 105° East 546 628 39,000  Level Memphis Center
11:19PM 33.1331 -90.1042 105° East 546 628 39,000  Level Memphis Center
11:20PM 33.0969 -89.9283 104° East 546 628 39,000  Level Memphis Center
11:21PM 33.0544 -89.7500 106° East 546 628 39,000  Level Memphis Center
11:22PM 33.0158 -89.5719 104° East 552 635 39,000  Level Memphis Center
11:23PM 32.9750 -89.4014 106° East 547 629 39,000  Level Memphis Center
11:24PM 32.9339 -89.2261 106° East 547 629 39,000  Level Memphis Center
11:25PM 32.8947 -89.0533 105° East 542 624 39,000  Level Memphis Center
11:26PM 32.8553 -88.8833 105° East 542 624 39,000  Level Memphis Center
11:27PM 32.8156 -88.7086 105° East 537 618 39,000  Level Memphis Center
11:29PM 32.7453 -88.4372 107° East 547 629 39,000  Level Atlanta Center
11:30PM 32.7050 -88.2697 106° East 531 611 39,000  Level Atlanta Center
11:31PM 32.6653 -88.0928 105° East 531 611 39,000  Level Atlanta Center
11:32PM 32.6250 -87.9183 105° East 550 633 39,000  Level Atlanta Center
11:33PM 32.5822 -87.7464 106° East 555 639 39,000  Level Atlanta Center
11:34PM 32.5392 -87.5769 107° East 539 620 39,000  Level Atlanta Center
11:35PM 32.4981 -87.4078 106° East 539 620 39,000  Level Atlanta Center
11:36PM 32.4544 -87.2339 107° East 544 626 39,000  Level Atlanta Center
11:37PM 32.4131 -87.0625 106° East 544 626 39,000  Level Atlanta Center
11:38PM 32.3689 -86.8964 107° East 539 620 39,000  Level Atlanta Center
11:39PM 32.3306 -86.7428 106° East 539 620 39,000  Level Atlanta Center
11:40PM 32.2903 -86.5769 106° East 534 615 39,000  Level Atlanta Center
11:41PM 32.2478 -86.4086 107° East 534 615 39,000  Level Atlanta Center
11:42PM 32.1922 -86.2478 112° Southeast 529 609 39,000  Level Atlanta Center
11:43PM 32.1219 -86.0964 119° Southeast 521 600 39,000  Level Atlanta Center
11:44PM 32.0389 -85.9328 121° Southeast 527 606 39,000  Level Atlanta Center
11:45PM 31.9703 -85.7819 118° Southeast 527 606 39,000  Level Atlanta Center
11:46PM 31.8572 -85.5367 118° Southeast 568 654 39,000  Level Jacksonville Center
11:47PM 31.7722 -85.4047 127° Southeast 529 609 39,000  Level Jacksonville Center
11:48PM 31.6722 -85.2800 133° Southeast 522 601 39,000  Level Jacksonville Center
11:49PM 31.5742 -85.1581 133° Southeast 511 588 39,000  Level Jacksonville Center
11:50PM 31.4781 -85.0386 133° Southeast 506 582 39,000  Level Jacksonville Center
11:51PM 31.3800 -84.9147 133° Southeast 511 588 39,000  Level Jacksonville Center
11:52PM 31.2836 -84.7936 133° Southeast 511 588 39,000  Level Jacksonville Center
11:53PM 31.1853 -84.6725 133° Southeast 511 588 39,000  Level Jacksonville Center
11:54PM 31.0889 -84.5542 134° Southeast 511 588 39,000  Level Jacksonville Center
11:55PM 30.9900 -84.4314 133° Southeast 511 588 39,000  Level Jacksonville Center
11:56PM 30.8892 -84.3111 134° Southeast 511 588 39,000  Level Jacksonville Center
11:57PM 30.7903 -84.1911 134° Southeast 511 588 39,000  Level Jacksonville Center
11:58PM 30.6933 -84.0714 133° Southeast 511 588 39,000  Level Jacksonville Center
11:59PM 30.5942 -83.9519 134° Southeast 511 588 39,000  Level Jacksonville Center
12:00AM 30.4989 -83.8353 133° Southeast 506 582 39,000  Level Jacksonville Center
12:01AM 30.3994 -83.7164 134° Southeast 506 582 39,000  Level Jacksonville Center
12:02AM 30.3022 -83.5950 133° Southeast 511 588 39,000 -360 Level Jacksonville Center
12:03AM 30.2131 -83.4886 134° Southeast 511 588 38,300 -900 Descending Jacksonville Center
12:04AM 30.1050 -83.3608 134° Southeast 511 588 37,300 -660 Descending Jacksonville Center
12:05AM 30.0031 -83.2428 135° Southeast 506 582 37,000 -180 Descending Jacksonville Center
12:06AM 29.9072 -83.1297 134° Southeast 511 588 37,000  Level Jacksonville Center
12:07AM 29.8092 -83.0147 134° Southeast 506 582 37,000 -480 Level Jacksonville Center
12:08AM 29.7111 -82.8972 134° Southeast 506 582 36,100 -2,100 Descending Jacksonville Center
12:09AM 29.6150 -82.7828 134° Southeast 501 577 32,900 -3,300 Descending Jacksonville Center
12:10AM 29.5169 -82.6683 135° Southeast 501 577 29,600 -3,060 Descending Jacksonville Center
12:11AM 29.4164 -82.5517 135° Southeast 507 583 26,800 -3,000 Descending Jacksonville Center
12:12AM 29.3200 -82.4400 135° Southeast 502 578 23,600 -3,000 Descending Jacksonville Center
12:13AM 29.2297 -82.3333 134° Southeast 489 563 20,900 -2,700 Descending Jacksonville Center
12:14AM 29.1394 -82.2317 135° Southeast 472 543 18,300 -2,520 Descending Jacksonville Center
12:15AM 29.0556 -82.1325 134° Southeast 450 518 15,900 -2,460 Descending Jacksonville Center
12:16AM 28.9778 -82.0406 134° Southeast 425 489 13,400 -2,400 Descending Jacksonville Center
12:17AM 28.9000 -81.9511 135° Southeast 409 471 11,100 -1,200 Descending Jacksonville Center
12:18AM 28.8408 -81.8614 127° Southeast 382 440 11,000 -240 Descending Jacksonville Center
12:19AM 28.8000 -81.8000 127° Southeast 318 366 10,700 -1,020 Descending Orlando TRACON
12:20AM 28.7333 -81.7500 147° Southeast 288 331 9,300 -1,500 Descending Orlando TRACON
12:21AM 28.6667 -81.6833 139° Southeast 294 338 7,700 -1,500 Descending Orlando TRACON
12:22AM 28.6000 -81.6333 147° Southeast 294 338 6,300 -900 Descending Orlando TRACON
12:23AM 28.5333 -81.5833 147° Southeast 282 325 6,000 -180 Descending Orlando TRACON
12:24AM 28.4667 -81.5333 147° Southeast 281 323 6,000  Level Orlando TRACON
12:25AM 28.4167 -81.4833 139° Southeast 279 321 6,000 -600 Level Orlando TRACON
12:26AM 28.3500 -81.4333 147° Southeast 262 302 4,800 -960 Descending Orlando TRACON
12:27AM 28.2833 -81.4167 168° South 227 261 4,100 -900 Descending Orlando TRACON
12:28AM 28.2833 -81.3500 90° East 210 242 3,000 -960 Descending Orlando TRACON
12:29AM 28.3000 -81.3000 69° East 160 184 2,200 -780 Descending Orlando TRACON
12:30AM 28.3333 -81.3000 360° North 140 161 1,500 -780 Descending Orlando TRACON
12:31AM 28.3833 -81.3000 360° North 141 162 700 -840 Descending Orlando TRACON
12:33AM 28.4167 -81.3000 24° Northeast  Level FlightAware Approximate
12:40AM 28.4294 -81.3090 24° Northeast  Level Estimated
12:41AM 28.4294 -81.3090 24° Northeast  Level Estimated
12:42AM 28.4294 -81.3090 24° Northeast  Level Estimated
12:43AM 28.4294 -81.3090 24° Northeast  Level Estimated